GW6248 Weather Reports


time (UTC)temp
F
wind
direction
speed
knots
gust
knots
rain 1hr
in
rain 24hr
in
rain mn
in
humidity
%
barometer
mb
20260508111503 60 308 0.9 4.3 0.00 0.00 0.00 55 1015.0
20260508111219 60 300 0.9 4.3 0.00 0.00 0.00 56 1014.8
20260508110503 60 273 1.7 4.3 0.00 0.00 0.00 52 1014.9
20260508110004 60 251 1.7 3.5 0.00 0.00 0.00 57 1015.1
20260508105504 60 237 1.7 3.5 0.00 0.00 0.00 56 1014.9
20260508105004 60 242 0.9 2.6 0.00 0.00 0.00 55 1014.9
20260508104503 60 260 0.9 2.6 0.00 0.00 0.00 54 1014.7
20260508104003 59 308 0.9 2.6 0.00 0.00 0.00 53 1015.1
20260508103717 60 282 0.9 2.6 0.00 0.00 0.00 55 1015.0
20260508103003 59 235 0.9 3.5 0.00 0.00 0.00 56 1015.1
20260508102503 59 245 0.9 2.6 0.00 0.00 0.00 55 1015.1
20260508102003 58 236 0.9 4.3 0.00 0.00 0.00 59 1015.0
20260508101503 59 245 1.7 6.1 0.00 0.00 0.00 61 1014.9
20260508101003 58 258 1.7 6.1 0.00 0.00 0.00 64 1015.2
20260508100503 56 292 0.9 3.5 0.00 0.00 0.00 69 1015.2
20260508100218 56 321 0.9 2.6 0.00 0.00 0.00 73 1015.0
20260508095504 55 319 0.9 2.6 0.00 0.00 0.00 79 1015.1
20260508095218 55 315 0.9 2.6 0.00 0.00 0.00 78 1015.0
20260508094504 54 338 0.9 1.7 0.00 0.00 0.00 80 1015.2
20260508094003 54 344 0.9 1.7 0.00 0.00 0.00 81 1015.3
20260508093717 54 344 0.9 1.7 0.00 0.00 0.00 81 1015.1
20260508093003 53 340 0.9 1.7 0.00 0.00 0.00 84 1015.1
20260508092717 53 307 0.9 2.6 0.00 0.00 0.00 84 1015.1
20260508092003 52 271 0.9 3.5 0.00 0.00 0.00 83 1015.4
20260508091503 52 285 0.9 3.5 0.00 0.00 0.00 84 1015.4
20260508091003 52 264 0.9 2.6 0.00 0.00 0.00 84 1015.4
20260508090503 51 273 0.9 2.6 0.00 0.00 0.00 85 1015.3
20260508090003 51 328 0.0 1.7 0.00 0.00 0.00 86 1015.3
20260508085503 51 330 0.0 0.9 0.00 0.00 0.00 86 1015.4
20260508085003 51 340 0.0 1.7 0.00 0.00 0.00 86 1015.1
20260508084503 50 339 0.0 1.7 0.00 0.00 0.00 86 1015.4
20260508084003 50 330 0.0 1.7 0.00 0.00 0.00 87 1015.3
20260508083503 50 332 0.9 1.7 0.00 0.00 0.00 87 1015.4
20260508083003 49 343 0.9 1.7 0.00 0.00 0.00 88 1015.4
20260508082719 49 356 0.0 1.7 0.00 0.00 0.00 87 1015.3
20260508082003 49 353 0.9 0.9 0.00 0.00 0.00 87 1015.3
20260508081716 49 351 0.9 1.7 0.00 0.00 0.00 87 1015.4
20260508081003 49 345 0.0 1.7 0.00 0.00 0.00 87 1015.3
20260508080503 49 343 0.0 1.7 0.00 0.00 0.00 87 1015.5
20260508080217 49 339 0.0 1.7 0.00 0.00 0.00 88 1015.2
20260508075503 49 333 0.0 1.7 0.00 0.00 0.00 88 1015.1
20260508075003 48 327 0.0 1.7 0.00 0.00 0.00 88 1015.1
20260508074503 48 295 0.0 1.7 0.00 0.00 0.00 89 1015.1
20260508074003 48 298 0.0 1.7 0.00 0.00 0.00 89 1015.1
20260508073503 48 14 0.0 1.7 0.00 0.00 0.00 89 1015.2
20260508073003 48 10 0.0 1.7 0.00 0.00 0.00 90 1015.1
20260508072503 47 14 0.0 1.7 0.00 0.00 0.00 91 1014.9
20260508072004 47 300 0.0 1.7 0.00 0.00 0.00 90 1014.9
20260508071503 47 277 0.0 1.7 0.00 0.00 0.00 91 1014.9
20260508071003 47 345 0.0 1.7 0.00 0.00 0.00 91 1015.0
20260508070503 47 11 0.0 1.7 0.00 0.00 0.00 91 1014.9
20260508070004 47 17 0.0 0.9 0.00 0.00 0.00 92 1015.1
20260508065503 47 24 0.0 0.9 0.00 0.00 0.00 92 1015.0
20260508065003 46 9 0.0 0.9 0.00 0.00 0.00 93 1015.0
20260508064504 46 16 0.0 0.9 0.00 0.00 0.00 93 1015.0
20260508064003 46 19 0.0 0.9 0.00 0.00 0.00 92 1014.9
20260508063718 46 296 0.0 1.7 0.00 0.00 0.00 92 1014.9
20260508063004 46 246 0.9 1.7 0.00 0.00 0.00 93 1015.1
20260508062503 46 311 0.0 1.7 0.00 0.00 0.00 93 1015.0
20260508062003 46 354 0.0 1.7 0.00 0.00 0.00 93 1014.9
20260508061503 45 320 0.0 1.7 0.00 0.00 0.00 94 1014.8
20260508061003 45 282 0.9 1.7 0.00 0.00 0.00 94 1014.8
20260508060503 45 280 0.9 2.6 0.00 0.00 0.00 94 1014.7
20260508060003 45 348 0.9 2.6 0.00 0.00 0.00 94 1014.8
20260508055503 45 19 0.0 1.7 0.00 0.00 0.00 95 1014.7
20260508055004 45 9 0.9 1.7 0.00 0.00 0.00 95 1014.8
20260508054503 45 352 0.0 1.7 0.00 0.00 0.00 95 1014.7
20260508054003 44 348 0.0 1.7 0.00 0.00 0.00 95 1014.7
20260508053503 44 358 0.0 1.7 0.00 0.00 0.00 95 1014.8
20260508053216 44 351 0.0 1.7 0.00 0.00 0.00 94 1014.7
20260508052503 44 330 0.0 1.7 0.00 0.00 0.00 94 1014.5
20260508052216 44 333 0.0 1.7 0.00 0.00 0.00 94 1014.6
20260508051503 44 7 0.0 1.7 0.00 0.00 0.00 94 1014.5
20260508051003 44 14 0.9 1.7 0.00 0.00 0.00 94 1014.7
20260508050503 44 353 0.0 1.7 0.00 0.00 0.00 94 1014.6
20260508050003 44 304 0.0 1.7 0.00 0.00 0.00 94 1014.6
20260508045503 44 327 0.0 1.7 0.00 0.00 0.00 94 1014.4
20260508045003 44 10 0.0 0.9 0.00 0.00 0.00 94 1014.5
20260508044503 44 337 0.0 1.7 0.00 0.00 0.00 94 1014.5
20260508044218 44 330 0.0 1.7 0.00 0.00 0.00 94 1014.4
20260508043503 44 353 0.9 1.7 0.00 0.00 0.00 94 1014.3
20260508043003 44 3 0.9 1.7 0.00 0.00 0.00 94 1014.5
20260508042503 44 22 0.9 2.6 0.00 0.00 0.00 94 1014.3
20260508042218 44 31 0.9 2.6 0.00 0.00 0.00 94 1014.3
20260508041504 44 51 0.9 1.7 0.00 0.00 0.00 95 1014.3
20260508041003 44 27 0.9 1.7 0.00 0.00 0.00 95 1014.4
20260508040503 43 340 0.9 1.7 0.00 0.00 0.00 95 1014.3
20260508040004 43 357 0.9 1.7 0.00 0.00 0.00 95 1014.6
20260508035717 43 360 0.9 1.7 0.00 0.00 0.00 95 1014.3
20260508035003 43 337 0.9 1.7 0.00 0.00 0.00 95 1014.5
20260508034503 43 351 0.9 1.7 0.00 0.00 0.00 95 1014.5
20260508034003 43 1 0.0 1.7 0.00 0.00 0.00 95 1014.5
20260508033503 43 333 0.0 1.7 0.00 0.00 0.00 95 1014.5
20260508033004 43 260 0.0 3.5 0.00 0.00 0.00 95 1014.5
20260508032504 43 265 0.9 3.5 0.00 0.00 0.00 95 1014.5
20260508032003 43 310 0.9 2.6 0.00 0.00 0.00 95 1014.5
20260508031503 43 345 0.9 2.6 0.00 0.00 0.00 95 1014.5
20260508031003 43 8 0.9 1.7 0.00 0.00 0.00 95 1014.5
20260508030503 43 3 0.9 1.7 0.00 0.00 0.00 96 1014.7
20260508030218 43 350 0.9 1.7 0.00 0.00 0.00 96 1014.6
20260508025503 43 328 0.9 1.7 0.00 0.00 0.00 96 1014.5
20260508025003 42 338 0.0 1.7 0.00 0.00 0.00 96 1014.5
20260508024716 42 354 0.0 1.7 0.00 0.00 0.00 96 1014.6
20260508024003 42 33 0.0 1.7 0.00 0.00 0.00 96 1014.5
20260508023504 42 324 0.0 1.7 0.00 0.00 0.00 96 1014.4
20260508023004 42 317 0.0 1.7 0.00 0.00 0.00 96 1014.6
20260508022503 42 356 0.0 1.7 0.00 0.00 0.00 96 1014.5
20260508022003 42 4 0.0 1.7 0.00 0.00 0.00 96 1014.6
20260508021503 42 255 0.9 2.6 0.00 0.00 0.00 96 1014.5
20260508021003 42 307 0.9 2.6 0.00 0.00 0.00 96 1014.5
20260508020718 42 354 0.9 2.6 0.00 0.00 0.00 96 1014.4
20260508020004 42 12 0.9 2.6 0.00 0.00 0.00 96 1014.4
20260508015503 42 26 0.0 1.7 0.00 0.00 0.00 96 1014.3
20260508015003 42 42 0.0 1.7 0.00 0.00 0.00 96 1014.3
20260508014504 42 10 0.0 0.9 0.00 0.00 0.00 96 1014.6
20260508014003 41 354 0.0 1.7 0.00 0.00 0.00 96 1014.6
20260508013503 41 333 0.9 1.7 0.00 0.00 0.00 96 1014.5
20260508013003 41 320 0.9 1.7 0.00 0.00 0.00 96 1014.5
20260508012718 41 327 0.9 1.7 0.00 0.00 0.00 96 1014.5
20260508012003 41 323 0.9 2.6 0.00 0.00 0.00 96 1014.5
20260508011718 41 309 0.9 2.6 0.00 0.00 0.00 96 1014.6
20260508011003 41 320 0.9 1.7 0.00 0.00 0.00 96 1014.7
20260508010504 41 336 0.9 1.7 0.00 0.00 0.00 96 1014.5
20260508010003 41 351 0.9 1.7 0.00 0.00 0.00 96 1014.6
20260508005718 41 347 0.9 1.7 0.00 0.00 0.00 96 1014.5
20260508005003 41 331 0.0 1.7 0.00 0.00 0.00 95 1014.6
20260508004503 42 355 0.0 1.7 0.00 0.00 0.00 95 1014.4
20260508004004 42 346 0.0 1.7 0.00 0.00 0.00 95 1014.6
20260508003503 42 354 0.0 1.7 0.00 0.00 0.00 95 1014.5
20260508003217 42 342 0.0 1.7 0.00 0.00 0.00 95 1014.7
20260508002504 42 323 0.9 1.7 0.00 0.00 0.00 95 1014.7
20260508002216 42 331 0.9 1.7 0.00 0.00 0.00 95 1014.7
20260508001503 42 337 0.0 0.9 0.00 0.00 0.00 95 1014.7
20260508001003 42 350 0.0 1.7 0.00 0.00 0.00 95 1014.7
20260508000717 42 358 0.0 1.7 0.00 0.00 0.00 95 1014.6
20260508000216 42 355 0.0 0.9 0.00 0.00 0.00 94 1014.8
20260507235503 42 313 0.0 2.6 0.00 0.00 0.00 94 1014.9
20260507235003 43 352 0.0 1.7 0.00 0.00 0.00 94 1014.7
20260507234503 43 10 0.0 1.7 0.00 0.00 0.00 94 1014.7
20260507234003 43 1 0.0 0.9 0.00 0.00 0.00 94 1014.8
20260507233504 43 355 0.0 0.9 0.00 0.00 0.00 94 1014.8
20260507233003 43 345 0.0 0.9 0.00 0.00 0.00 94 1014.9
20260507232503 43 327 0.0 1.7 0.00 0.00 0.00 94 1014.7
20260507232218 43 336 0.0 1.7 0.00 0.00 0.00 94 1014.6
20260507231503 43 344 0.0 1.7 0.00 0.00 0.00 94 1014.7
20260507231003 44 314 0.9 1.7 0.00 0.00 0.00 94 1014.7
20260507230504 44 333 0.9 1.7 0.00 0.00 0.00 94 1014.7
20260507230218 44 1 0.0 1.7 0.00 0.00 0.00 94 1014.6
20260507225503 44 342 0.0 1.7 0.00 0.00 0.00 93 1014.9
20260507225003 44 297 0.0 1.7 0.00 0.00 0.00 93 1014.7
20260507224504 44 320 0.0 1.7 0.00 0.00 0.00 93 1014.8
20260507224003 44 333 0.0 1.7 0.00 0.00 0.00 93 1014.9
20260507223504 44 312 0.9 1.7 0.00 0.00 0.00 93 1014.8
20260507223003 44 317 0.0 1.7 0.00 0.00 0.00 93 1014.6
20260507222503 45 321 0.0 1.7 0.00 0.00 0.00 93 1014.7
20260507222004 45 325 0.0 1.7 0.00 0.00 0.00 93 1014.7
20260507221717 45 328 0.0 1.7 0.00 0.00 0.00 93 1014.7
20260507221218 45 346 0.0 1.7 0.00 0.00 0.00 93 1014.7
20260507220717 45 339 0.0 1.7 0.00 0.00 0.00 92 1014.7
20260507220218 45 327 0.0 1.7 0.00 0.00 0.00 92 1014.7
20260507215503 45 347 0.0 1.7 0.00 0.00 0.00 92 1014.7
20260507215003 45 336 0.0 1.7 0.00 0.00 0.00 92 1014.5
20260507214716 45 330 0.0 1.7 0.00 0.00 0.00 92 1014.5
20260507214003 46 354 0.0 1.7 0.00 0.00 0.00 91 1014.5
20260507213503 46 352 0.0 1.7 0.00 0.00 0.00 91 1014.4
20260507213003 46 343 0.0 0.9 0.00 0.00 0.00 90 1014.5
20260507212503 46 337 0.0 0.9 0.00 0.00 0.00 89 1014.5
20260507212004 46 306 0.0 1.7 0.00 0.00 0.00 88 1014.4
20260507211503 46 310 0.0 1.7 0.00 0.00 0.00 88 1014.4
20260507211004 47 322 0.0 1.7 0.00 0.00 0.00 89 1014.5
20260507210503 47 325 0.0 0.9 0.00 0.00 0.00 88 1014.3
20260507210004 47 323 0.9 1.7 0.00 0.00 0.00 88 1014.5
20260507205504 47 326 0.9 1.7 0.00 0.00 0.00 87 1014.3
20260507205003 47 332 0.9 1.7 0.00 0.00 0.00 87 1014.3
20260507204503 48 321 0.0 1.7 0.00 0.00 0.00 86 1014.2
20260507204003 48 307 0.0 1.7 0.00 0.00 0.00 85 1014.1
20260507203503 48 322 0.0 1.7 0.00 0.00 0.00 85 1014.1
20260507203217 48 332 0.0 1.7 0.00 0.00 0.00 85 1014.0
20260507202718 49 342 0.0 1.7 0.00 0.00 0.00 84 1014.0
20260507202003 49 324 0.0 1.7 0.00 0.00 0.00 83 1014.1
20260507201503 50 314 0.0 1.7 0.00 0.00 0.00 83 1013.9
20260507201217 50 305 0.0 1.7 0.00 0.00 0.00 82 1013.8
20260507200504 50 340 0.0 0.9 0.00 0.00 0.00 82 1013.9
20260507200004 50 312 0.0 0.9 0.00 0.00 0.00 81 1013.7
20260507195504 51 328 0.0 0.9 0.00 0.00 0.00 81 1013.9
20260507195217 51 332 0.0 0.9 0.00 0.00 0.00 81 1013.9
20260507194503 51 343 0.0 1.7 0.00 0.00 0.00 80 1013.8
20260507194004 51 350 0.0 1.7 0.00 0.00 0.00 80 1013.6
20260507193503 51 353 0.0 0.9 0.00 0.00 0.00 80 1013.5
20260507193004 51 324 0.0 0.9 0.00 0.00 0.00 80 1013.6
20260507192503 51 324 0.0 0.9 0.00 0.00 0.00 79 1013.4
20260507192003 51 345 0.0 0.9 0.00 0.00 0.00 79 1013.7
20260507191718 51 356 0.0 0.9 0.00 0.00 0.00 79 1013.7
20260507191003 51 9 0.0 0.9 0.00 0.00 0.00 79 1013.4
20260507190718 51 359 0.0 0.9 0.00 0.00 0.00 78 1013.6
20260507190004 52 360 0.0 0.9 0.00 0.00 0.00 78 1013.6
20260507185503 52 5 0.0 1.7 0.00 0.00 0.00 78 1013.6
20260507185003 51 9 0.0 1.7 0.00 0.00 0.00 78 1013.4
20260507184503 52 17 0.0 0.9 0.00 0.00 0.00 78 1013.5
20260507184003 52 24 0.0 0.9 0.00 0.00 0.00 77 1013.4
20260507183503 52 18 0.0 1.7 0.00 0.00 0.00 77 1013.3
20260507183004 53 15 0.0 1.7 0.00 0.00 0.00 77 1013.5
20260507182503 53 3 0.0 1.7 0.00 0.00 0.00 76 1013.4
20260507182003 54 16 0.9 2.6 0.00 0.00 0.00 75 1013.4
20260507181503 54 26 0.9 2.6 0.00 0.00 0.00 70 1013.3
20260507181003 53 19 0.9 3.5 0.00 0.00 0.00 72 1013.4
20260507180717 53 8 0.9 3.5 0.00 0.00 0.00 74 1013.4
20260507180003 53 360 0.9 1.7 0.00 0.00 0.00 77 1013.3
20260507175503 52 4 0.0 1.7 0.00 0.00 0.00 77 1013.4
20260507175003 53 4 0.0 1.7 0.00 0.00 0.00 77 1013.3
20260507174503 53 5 0.0 0.9 0.00 0.00 0.00 77 1013.5
20260507174003 53 357 0.0 0.9 0.00 0.00 0.00 76 1013.4
20260507173503 53 337 0.0 1.7 0.00 0.00 0.00 73 1013.2
20260507173004 54 333 0.9 2.6 0.00 0.00 0.00 72 1013.3
20260507172504 54 120 0.9 2.6 0.00 0.00 0.00 70 1013.3
20260507172003 54 97 0.9 2.6 0.00 0.00 0.00 71 1013.3
20260507171503 54 66 0.9 3.5 0.00 0.00 0.00 72 1013.3
20260507171003 54 65 1.7 3.5 0.00 0.00 0.00 72 1013.4
20260507170503 54 58 1.7 4.3 0.00 0.00 0.00 73 1013.3
20260507170218 54 64 1.7 4.3 0.00 0.00 0.00 72 1013.6
20260507165504 54 76 1.7 4.3 0.00 0.00 0.00 73 1013.3
20260507165003 54 88 1.7 3.5 0.00 0.00 0.00 74 1013.4
20260507164503 54 83 1.7 4.3 0.00 0.00 0.00 73 1013.3
20260507164003 54 90 1.7 4.3 0.00 0.00 0.00 77 1013.3
20260507163503 54 96 2.6 5.2 0.00 0.00 0.00 77 1013.4
20260507163003 54 90 2.6 5.2 0.00 0.00 0.00 76 1013.3
20260507162503 54 73 2.6 5.2 0.00 0.00 0.00 72 1013.2
20260507162003 54 75 1.7 5.2 0.00 0.00 0.00 73 1013.5
20260507161503 55 111 1.7 4.3 0.00 0.00 0.00 74 1013.5
20260507161003 54 118 1.7 4.3 0.00 0.00 0.00 74 1013.3
20260507160503 55 99 1.7 4.3 0.00 0.00 0.00 73 1013.3
20260507160217 55 94 1.7 4.3 0.00 0.00 0.00 74 1013.2
20260507155504 55 141 2.6 7.0 0.00 0.00 0.00 74 1013.4
20260507155003 55 163 2.6 7.0 0.00 0.00 0.00 75 1013.4
20260507154718 55 128 2.6 5.2 0.00 0.00 0.00 74 1013.3
20260507154004 55 100 1.7 6.1 0.00 0.00 0.00 73 1013.5
20260507153504 55 144 1.7 6.1 0.00 0.00 0.00 73 1013.4
20260507153217 55 142 1.7 6.1 0.00 0.00 0.00 73 1013.5
20260507152504 54 116 1.7 4.3 0.00 0.00 0.00 73 1013.5
20260507152003 54 110 1.7 4.3 0.00 0.00 0.00 74 1013.6
20260507151503 55 115 1.7 5.2 0.00 0.00 0.00 75 1013.3
20260507151217 55 111 1.7 5.2 0.00 0.00 0.00 75 1013.5
20260507150503 54 120 0.9 4.3 0.00 0.00 0.00 75 1013.4
20260507150003 54 91 1.7 4.3 0.00 0.00 0.00 75 1013.4
20260507145503 54 87 1.7 4.3 0.00 0.00 0.00 76 1013.4
20260507145003 54 97 1.7 6.1 0.00 0.00 0.00 75 1013.5
20260507144503 54 79 1.7 6.1 0.00 0.00 0.00 76 1013.3
20260507144004 54 58 1.7 5.2 0.00 0.00 0.00 76 1013.6
20260507143503 54 17 1.7 3.5 0.00 0.00 0.00 77 1013.5
20260507143217 54 348 0.9 3.5 0.00 0.00 0.00 77 1013.7
20260507142503 54 351 0.9 3.5 0.00 0.00 0.00 78 1013.5
20260507142003 54 315 0.9 3.5 0.00 0.00 0.00 76 1013.5
20260507141503 55 252 0.0 1.7 0.00 0.00 0.00 76 1013.5
20260507141004 55 242 0.9 2.6 0.00 0.00 0.00 74 1013.6
20260507140503 55 59 0.9 3.5 0.00 0.00 0.00 71 1013.5
20260507140217 55 82 1.7 3.5 0.00 0.00 0.00 70 1013.6
20260507135718 56 165 1.7 4.3 0.00 0.00 0.00 69 1013.5
20260507135003 56 170 1.7 4.3 0.00 0.00 0.00 66 1013.4
20260507134503 56 142 1.7 3.5 0.00 0.00 0.00 67 1013.5
20260507134004 56 84 1.7 3.5 0.00 0.00 0.00 69 1013.4
20260507133503 56 80 1.7 4.3 0.00 0.00 0.00 69 1013.6
20260507133003 56 90 1.7 4.3 0.00 0.00 0.00 68 1013.5
20260507132504 56 95 1.7 4.3 0.00 0.00 0.00 67 1013.6
20260507132003 56 118 1.7 4.3 0.00 0.00 0.00 68 1013.7
20260507131503 55 192 0.9 3.5 0.00 0.00 0.00 68 1013.4
20260507131003 55 261 1.7 4.3 0.00 0.00 0.00 68 1013.4
20260507130503 55 264 1.7 5.2 0.00 0.00 0.00 68 1013.6
20260507130003 55 71 2.6 5.2 0.00 0.00 0.00 68 1013.4
20260507125503 56 89 1.7 5.2 0.00 0.00 0.00 66 1013.3
20260507125004 56 140 1.7 3.5 0.00 0.00 0.00 66 1013.4
20260507124717 57 158 1.7 3.5 0.00 0.00 0.00 66 1013.6
20260507124003 56 83 0.9 3.5 0.00 0.00 0.00 65 1013.4
20260507123717 56 42 0.9 1.7 0.00 0.00 0.00 68 1013.2
20260507123003 55 32 0.9 3.5 0.00 0.00 0.00 67 1013.2
20260507122503 56 45 0.9 3.5 0.00 0.00 0.00 67 1013.2
20260507122004 56 65 0.9 3.5 0.00 0.00 0.00 66 1013.3
20260507121503 56 90 0.9 3.5 0.00 0.00 0.00 67 1013.2
20260507121003 56 135 0.9 2.6 0.00 0.00 0.00 66 1013.2
20260507120503 56 81 0.9 3.5 0.00 0.00 0.00 66 1013.3
20260507120004 56 64 0.9 3.5 0.00 0.00 0.00 65 1013.3
20260507115503 57 312 0.9 4.3 0.00 0.00 0.00 62 1013.0
20260507115004 57 271 0.9 4.3 0.00 0.00 0.00 58 1013.3
20260507114717 57 296 0.9 4.3 0.00 0.00 0.00 59 1013.4
20260507114003 57 352 1.7 5.2 0.00 0.00 0.00 56 1013.2
20260507113503 58 16 1.7 5.2 0.00 0.00 0.00 53 1013.1
20260507113004 58 358 0.9 3.5 0.00 0.00 0.00 56 1013.3
20260507112503 58 327 0.9 3.5 0.00 0.00 0.00 57 1013.2
20260507112003 58 260 1.7 5.2 0.00 0.00 0.00 59 1013.0